Hourly Weather Tianjin

Today, 15 July, Wednesday

Time Temperature Precipitation Wind Pressure Humidity
00:00 +29°C° 0 mm 2 mps 753 mmHg 49%
01:00 +28°C° 0 mm 2 mps 753 mmHg 54%
02:00 +27°C° 0 mm 2 mps 753 mmHg 53%
03:00 +27°C° 0 mm 2 mps 753 mmHg 55%
04:00 +27°C° 0 mm 2 mps 753 mmHg 58%
05:00 +26°C° 0 mm 2 mps 753 mmHg 61%
06:00 +28°C° 0 mm 2 mps 753 mmHg 57%
07:00 +29°C° 0 mm 2 mps 753 mmHg 54%
08:00 +31°C° 0 mm 2 mps 753 mmHg 50%
09:00 +33°C° 0 mm 3 mps 753 mmHg 45%
10:00 +35°C° 0 mm 3 mps 753 mmHg 40%
11:00 +37°C° 0 mm 3 mps 753 mmHg 35%
12:00 +37°C° 0 mm 3 mps 752 mmHg 32%
13:00 +38°C° 0 mm 3 mps 751 mmHg 30%
14:00 +38°C° 0 mm 3 mps 751 mmHg 28%
15:00 +38°C° 0 mm 3 mps 751 mmHg 27%
16:00 +39°C° 0 mm 3 mps 751 mmHg 27%
17:00 +39°C° 0 mm 3 mps 750 mmHg 27%
18:00 +37°C° 0 mm 3 mps 750 mmHg 30%
19:00 +36°C° 0 mm 3 mps 750 mmHg 32%
20:00 +34°C° 0 mm 2 mps 750 mmHg 35%
21:00 +33°C° 0 mm 3 mps 751 mmHg 38%
22:00 +31°C° 0 mm 3 mps 751 mmHg 42%
23:00 +31°C° 0 mm 3 mps 751 mmHg 45%

Tomorrow, 16 July, Thursday

Time Temperature Precipitation Wind Pressure Humidity
00:00 +30°C° 0 mm 3 mps 751 mmHg 46%
01:00 +30°C° 0 mm 2 mps 751 mmHg 48%
02:00 +29°C° 0 mm 2 mps 751 mmHg 49%
03:00 +29°C° 0 mm 2 mps 751 mmHg 50%
04:00 +28°C° 0 mm 2 mps 751 mmHg 52%
05:00 +28°C° 0 mm 2 mps 752 mmHg 53%
06:00 +29°C° 0 mm 2 mps 752 mmHg 50%
07:00 +31°C° 0 mm 2 mps 752 mmHg 47%
08:00 +32°C° 0 mm 2 mps 752 mmHg 44%
09:00 +35°C° 0 mm 3 mps 752 mmHg 40%
10:00 +36°C° 0 mm 3 mps 752 mmHg 36%
11:00 +38°C° 0 mm 4 mps 751 mmHg 32%
12:00 +38°C° 0 mm 4 mps 751 mmHg 31%
13:00 +40°C° 0 mm 5 mps 750 mmHg 30%
14:00 +40°C° 0 mm 5 mps 750 mmHg 28%
15:00 +40°C° 0 mm 5 mps 750 mmHg 29%
16:00 +40°C° 0 mm 5 mps 750 mmHg 29%
17:00 +39°C° 0 mm 5 mps 749 mmHg 30%
18:00 +37°C° 0 mm 4 mps 750 mmHg 34%
19:00 +35°C° 0 mm 4 mps 750 mmHg 37%
20:00 +34°C° 0 mm 4 mps 750 mmHg 41%
21:00 +34°C° 0 mm 3 mps 750 mmHg 43%
22:00 +33°C° 0 mm 3 mps 751 mmHg 44%
23:00 +31°C° 0 mm 3 mps 751 mmHg 46%

Day after tomorrow, 17 July, Friday

Time Temperature Precipitation Wind Pressure Humidity
00:00 +31°C° 0 mm 3 mps 751 mmHg 48%
01:00 +30°C° 0 mm 3 mps 751 mmHg 49%
02:00 +30°C° 0 mm 3 mps 751 mmHg 51%
03:00 +29°C° 0 mm 3 mps 751 mmHg 53%
04:00 +29°C° 0 mm 3 mps 751 mmHg 55%
05:00 +28°C° 0 mm 3 mps 751 mmHg 57%
06:00 +29°C° 0 mm 3 mps 751 mmHg 55%
07:00 +30°C° 0 mm 3 mps 752 mmHg 53%
08:00 +31°C° 0 mm 3 mps 752 mmHg 51%
09:00 +34°C° 0 mm 4 mps 752 mmHg 46%
10:00 +35°C° 0 mm 4 mps 752 mmHg 42%
11:00 +37°C° 0 mm 4 mps 752 mmHg 38%
12:00 +36°C° 0 mm 4 mps 751 mmHg 39%
13:00 +36°C° 0 mm 4 mps 751 mmHg 41%
14:00 +35°C° 0 mm 4 mps 751 mmHg 42%
15:00 +35°C° 0.1 mm 4 mps 751 mmHg 42%
16:00 +35°C° 0.1 mm 4 mps 751 mmHg 41%
17:00 +35°C° 0.1 mm 4 mps 750 mmHg 41%
18:00 +34°C° 0 mm 4 mps 751 mmHg 45%
19:00 +33°C° 0 mm 4 mps 751 mmHg 49%
20:00 +32°C° 0 mm 4 mps 751 mmHg 53%
21:00 +32°C° 0 mm 4 mps 751 mmHg 52%
22:00 +30°C° 0 mm 4 mps 752 mmHg 52%
23:00 +30°C° 0 mm 4 mps 752 mmHg 51%

18 July, Saturday

Time Temperature Precipitation Wind Pressure Humidity
00:00 +29°C° 0 mm 4 mps 752 mmHg 52%
01:00 +29°C° 0 mm 4 mps 752 mmHg 53%
02:00 +28°C° 0 mm 4 mps 752 mmHg 54%
03:00 +27°C° 0 mm 3 mps 752 mmHg 56%
04:00 +27°C° 0 mm 3 mps 752 mmHg 58%
05:00 +26°C° 0 mm 3 mps 752 mmHg 61%
06:00 +27°C° 0 mm 3 mps 752 mmHg 59%
07:00 +28°C° 0 mm 3 mps 752 mmHg 57%
08:00 +29°C° 0 mm 3 mps 753 mmHg 56%
09:00 +30°C° 0 mm 4 mps 753 mmHg 51%
10:00 +32°C° 0 mm 5 mps 752 mmHg 45%
11:00 +33°C° 0 mm 6 mps 752 mmHg 40%
12:00 +34°C° 0 mm 6 mps 752 mmHg 39%
13:00 +34°C° 0 mm 6 mps 751 mmHg 37%
14:00 +34°C° 0 mm 6 mps 751 mmHg 36%
15:00 +34°C° 0 mm 6 mps 750 mmHg 38%
16:00 +33°C° 0 mm 6 mps 750 mmHg 41%
17:00 +32°C° 0 mm 6 mps 750 mmHg 44%
18:00 +30°C° 0 mm 6 mps 750 mmHg 49%
19:00 +29°C° 0 mm 6 mps 750 mmHg 54%
20:00 +28°C° 0 mm 5 mps 751 mmHg 59%
21:00 +27°C° 0 mm 5 mps 751 mmHg 61%
22:00 +27°C° 0 mm 5 mps 751 mmHg 63%
23:00 +27°C° 0 mm 4 mps 751 mmHg 66%

19 July, Sunday

Time Temperature Precipitation Wind Pressure Humidity
00:00 +26°C° 0 mm 4 mps 751 mmHg 66%
01:00 +26°C° 0 mm 4 mps 751 mmHg 66%
02:00 +26°C° 0 mm 4 mps 751 mmHg 66%
03:00 +26°C° 0 mm 4 mps 751 mmHg 68%
04:00 +25°C° 0 mm 5 mps 750 mmHg 71%
05:00 +25°C° 0 mm 5 mps 750 mmHg 73%
06:00 +25°C° 0 mm 5 mps 751 mmHg 69%
07:00 +24°C° 0 mm 6 mps 751 mmHg 64%
08:00 +24°C° 0 mm 6 mps 751 mmHg 60%
09:00 +24°C° 0 mm 6 mps 751 mmHg 59%
10:00 +24°C° 0 mm 7 mps 751 mmHg 58%
11:00 +24°C° 0 mm 7 mps 750 mmHg 57%
12:00 +23°C° 0.1 mm 6 mps 750 mmHg 64%
13:00 +22°C° 0.1 mm 6 mps 750 mmHg 71%
14:00 +21°C° 0.1 mm 6 mps 749 mmHg 79%
15:00 +21°C° 0.7 mm 6 mps 749 mmHg 81%
16:00 +20°C° 0.7 mm 6 mps 749 mmHg 83%
17:00 +20°C° 0.7 mm 6 mps 749 mmHg 85%
18:00 +20°C° 0.2 mm 6 mps 749 mmHg 85%
19:00 +20°C° 0.2 mm 5 mps 750 mmHg 85%
20:00 +20°C° 0.2 mm 5 mps 750 mmHg 84%
21:00 +20°C° 0.3 mm 5 mps 750 mmHg 85%
22:00 +20°C° 0.3 mm 4 mps 750 mmHg 86%
23:00 +20°C° 0.3 mm 4 mps 750 mmHg 87%

20 July, Monday

Time Temperature Precipitation Wind Pressure Humidity
00:00 +20°C° 0.1 mm 4 mps 750 mmHg 88%
01:00 +20°C° 0.1 mm 3 mps 750 mmHg 88%
02:00 +20°C° 0.1 mm 3 mps 750 mmHg 88%
03:00 +20°C° 0.1 mm 2 mps 750 mmHg 87%
04:00 +21°C° 0.1 mm 2 mps 750 mmHg 86%
05:00 +21°C° 0.1 mm 2 mps 750 mmHg 85%
06:00 +21°C° 0 mm 2 mps 750 mmHg 81%
07:00 +23°C° 0 mm 2 mps 751 mmHg 78%
08:00 +23°C° 0 mm 2 mps 751 mmHg 74%
09:00 +25°C° 0 mm 2 mps 751 mmHg 67%
10:00 +27°C° 0 mm 1 mps 751 mmHg 59%
11:00 +28°C° 0 mm 1 mps 751 mmHg 52%
12:00 +30°C° 0 mm 2 mps 750 mmHg 46%
13:00 +32°C° 0 mm 2 mps 750 mmHg 40%
14:00 +35°C° 0 mm 2 mps 750 mmHg 35%
15:00 +35°C° 0 mm 3 mps 750 mmHg 34%
16:00 +35°C° 0 mm 3 mps 749 mmHg 33%
17:00 +35°C° 0 mm 3 mps 749 mmHg 33%
18:00 +34°C° 0 mm 3 mps 749 mmHg 37%
19:00 +33°C° 0 mm 4 mps 750 mmHg 42%
20:00 +30°C° 0 mm 4 mps 750 mmHg 47%
21:00 +30°C° 0 mm 3 mps 750 mmHg 48%
22:00 +29°C° 0 mm 3 mps 750 mmHg 50%
23:00 +28°C° 0 mm 3 mps 751 mmHg 51%
Show more